• In Portugal
  • List of Countries
  • For 7 days
  • Water Temperature
  • Satellite Maps
  • Weather Map
  • Weather Widgets
  • user-avatar
    Login

    Hourly Weather Yankovschina

    Today, 20 July, Friday

    Time Temperature Precipitation Wind Pressure Humidity
    00:00 +18°C° 0 mm 3 mps 737 mmHg 96%
    01:00 +17°C° 0 mm 3 mps 737 mmHg 97%
    02:00 +17°C° 0 mm 2 mps 737 mmHg 98%
    03:00 +17°C° 0 mm 2 mps 737 mmHg 98%
    04:00 +17°C° 0 mm 2 mps 737 mmHg 98%
    05:00 +17°C° 0 mm 2 mps 737 mmHg 98%
    06:00 +18°C° 0.1 mm 3 mps 737 mmHg 97%
    07:00 +18°C° 0.1 mm 3 mps 737 mmHg 96%
    08:00 +19°C° 0.1 mm 3 mps 737 mmHg 94%
    09:00 +20°C° 0.2 mm 3 mps 737 mmHg 93%
    10:00 +20°C° 0.2 mm 3 mps 737 mmHg 92%
    11:00 +21°C° 0.2 mm 3 mps 737 mmHg 91%
    12:00 +22°C° 0.3 mm 3 mps 737 mmHg 87%
    13:00 +24°C° 0.3 mm 3 mps 737 mmHg 83%
    14:00 +25°C° 0.3 mm 3 mps 737 mmHg 79%
    15:00 +25°C° 0.6 mm 3 mps 737 mmHg 81%
    16:00 +25°C° 0.6 mm 2 mps 737 mmHg 82%
    17:00 +25°C° 0.6 mm 2 mps 737 mmHg 84%
    18:00 +24°C° 1.1 mm 2 mps 737 mmHg 87%
    19:00 +23°C° 1.1 mm 2 mps 737 mmHg 90%
    20:00 +21°C° 1.1 mm 2 mps 737 mmHg 93%
    21:00 +20°C° 0 mm 2 mps 737 mmHg 93%
    22:00 +20°C° 0 mm 1 mps 737 mmHg 94%
    23:00 +20°C° 0 mm 1 mps 737 mmHg 95%

    Tomorrow, 21 July, Saturday

    Time Temperature Precipitation Wind Pressure Humidity
    00:00 +19°C° 0 mm 1 mps 737 mmHg 95%
    01:00 +19°C° 0 mm 1 mps 737 mmHg 96%
    02:00 +19°C° 0 mm 1 mps 737 mmHg 96%
    03:00 +19°C° 0 mm 1 mps 737 mmHg 96%
    04:00 +19°C° 0 mm 1 mps 737 mmHg 97%
    05:00 +19°C° 0 mm 1 mps 737 mmHg 97%
    06:00 +20°C° 0 mm 1 mps 737 mmHg 94%
    07:00 +22°C° 0 mm 1 mps 738 mmHg 91%
    08:00 +23°C° 0 mm 1 mps 738 mmHg 88%
    09:00 +24°C° 0.4 mm 2 mps 738 mmHg 85%
    10:00 +25°C° 0.4 mm 2 mps 738 mmHg 82%
    11:00 +26°C° 0.4 mm 2 mps 738 mmHg 78%
    12:00 +26°C° 0.9 mm 2 mps 738 mmHg 78%
    13:00 +26°C° 0.9 mm 2 mps 738 mmHg 78%
    14:00 +26°C° 0.9 mm 2 mps 738 mmHg 78%
    15:00 +26°C° 1.5 mm 2 mps 738 mmHg 79%
    16:00 +26°C° 1.5 mm 2 mps 738 mmHg 81%
    17:00 +26°C° 1.5 mm 2 mps 737 mmHg 82%
    18:00 +24°C° 1 mm 2 mps 738 mmHg 85%
    19:00 +23°C° 1 mm 2 mps 738 mmHg 88%
    20:00 +21°C° 1 mm 2 mps 738 mmHg 91%
    21:00 +21°C° 0.3 mm 2 mps 737 mmHg 92%
    22:00 +20°C° 0.3 mm 2 mps 737 mmHg 93%
    23:00 +20°C° 0.3 mm 2 mps 737 mmHg 94%

    Day after tomorrow, 22 July, Sunday

    Time Temperature Precipitation Wind Pressure Humidity
    00:00 +20°C° 0 mm 1 mps 737 mmHg 94%
    01:00 +20°C° 0 mm 1 mps 737 mmHg 94%
    02:00 +20°C° 0 mm 1 mps 737 mmHg 95%
    03:00 +20°C° 0.3 mm 1 mps 737 mmHg 95%
    04:00 +20°C° 0.3 mm 1 mps 737 mmHg 96%
    05:00 +20°C° 0.3 mm 1 mps 737 mmHg 96%
    06:00 +21°C° 0.6 mm 1 mps 737 mmHg 93%
    07:00 +22°C° 0.6 mm 1 mps 737 mmHg 91%
    08:00 +23°C° 0.6 mm 1 mps 737 mmHg 88%
    09:00 +24°C° 2 mm 1 mps 737 mmHg 85%
    10:00 +25°C° 2 mm 2 mps 737 mmHg 81%
    11:00 +26°C° 2 mm 2 mps 737 mmHg 78%
    12:00 +26°C° 1.8 mm 3 mps 737 mmHg 79%
    13:00 +26°C° 1.8 mm 3 mps 737 mmHg 79%
    14:00 +26°C° 1.8 mm 3 mps 737 mmHg 79%
    15:00 +25°C° 1.1 mm 3 mps 737 mmHg 82%
    16:00 +25°C° 1.1 mm 4 mps 737 mmHg 85%
    17:00 +23°C° 1.1 mm 4 mps 737 mmHg 87%
    18:00 +22°C° 0.2 mm 4 mps 737 mmHg 90%
    19:00 +21°C° 0.2 mm 3 mps 737 mmHg 92%
    20:00 +20°C° 0.2 mm 3 mps 737 mmHg 94%
    21:00 +20°C° 0.1 mm 3 mps 737 mmHg 95%
    22:00 +19°C° 0.1 mm 3 mps 737 mmHg 96%
    23:00 +19°C° 0.1 mm 3 mps 737 mmHg 96%

    23 July, Monday

    Time Temperature Precipitation Wind Pressure Humidity
    00:00 +19°C° 0.1 mm 3 mps 737 mmHg 96%
    01:00 +19°C° 0.1 mm 3 mps 737 mmHg 97%
    02:00 +18°C° 0.1 mm 3 mps 737 mmHg 97%
    03:00 +19°C° 0 mm 2 mps 737 mmHg 97%
    04:00 +19°C° 0 mm 2 mps 737 mmHg 97%
    05:00 +19°C° 0 mm 2 mps 737 mmHg 97%
    06:00 +19°C° 0 mm 2 mps 737 mmHg 96%
    07:00 +20°C° 0 mm 2 mps 737 mmHg 96%
    08:00 +20°C° 0 mm 2 mps 737 mmHg 95%
    09:00 +22°C° 0.1 mm 1 mps 737 mmHg 93%
    10:00 +22°C° 0.1 mm 1 mps 737 mmHg 91%
    11:00 +23°C° 0.1 mm 1 mps 738 mmHg 89%
    12:00 +23°C° 0.3 mm 2 mps 738 mmHg 88%
    13:00 +24°C° 0.3 mm 2 mps 738 mmHg 87%
    14:00 +24°C° 0.3 mm 3 mps 738 mmHg 86%
    15:00 +24°C° 0.7 mm 3 mps 738 mmHg 87%
    16:00 +24°C° 0.7 mm 3 mps 738 mmHg 88%
    17:00 +22°C° 0.7 mm 4 mps 738 mmHg 89%
    18:00 +21°C° 0.7 mm 4 mps 738 mmHg 90%
    19:00 +21°C° 0.7 mm 4 mps 738 mmHg 92%
    20:00 +20°C° 0.7 mm 4 mps 738 mmHg 94%
    21:00 +19°C° 0 mm 3 mps 738 mmHg 95%
    22:00 +19°C° 0 mm 3 mps 738 mmHg 95%
    23:00 +19°C° 0 mm 3 mps 738 mmHg 96%

    24 July, Tuesday

    Time Temperature Precipitation Wind Pressure Humidity
    00:00 +19°C° 0 mm 3 mps 738 mmHg 96%
    01:00 +19°C° 0 mm 3 mps 738 mmHg 96%
    02:00 +18°C° 0 mm 3 mps 738 mmHg 97%
    03:00 +18°C° 0.2 mm 3 mps 738 mmHg 97%
    04:00 +18°C° 0.2 mm 3 mps 739 mmHg 97%
    05:00 +19°C° 0.2 mm 2 mps 739 mmHg 97%
    06:00 +19°C° 0.1 mm 2 mps 739 mmHg 97%
    07:00 +19°C° 0.1 mm 2 mps 739 mmHg 96%
    08:00 +20°C° 0.1 mm 2 mps 739 mmHg 95%
    09:00 +20°C° 0.1 mm 2 mps 740 mmHg 94%
    10:00 +21°C° 0.1 mm 2 mps 740 mmHg 93%
    11:00 +21°C° 0.1 mm 2 mps 740 mmHg 91%
    12:00 +23°C° 0.3 mm 2 mps 740 mmHg 89%
    13:00 +24°C° 0.3 mm 2 mps 740 mmHg 87%
    14:00 +25°C° 0.3 mm 2 mps 740 mmHg 85%
    15:00 +25°C° 1.1 mm 2 mps 740 mmHg 86%
    16:00 +25°C° 1.1 mm 3 mps 740 mmHg 86%
    17:00 +25°C° 1.1 mm 3 mps 740 mmHg 86%
    18:00 +24°C° 0.4 mm 3 mps 740 mmHg 89%
    19:00 +23°C° 0.4 mm 2 mps 741 mmHg 92%
    20:00 +21°C° 0.4 mm 2 mps 741 mmHg 95%
    21:00 +20°C° 0.1 mm 2 mps 741 mmHg 96%
    22:00 +20°C° 0.1 mm 2 mps 741 mmHg 96%
    23:00 +19°C° 0.1 mm 2 mps 741 mmHg 96%

    25 July, Wednesday

    Time Temperature Precipitation Wind Pressure Humidity
    00:00 +20°C° 0 mm 1 mps 741 mmHg 97%
    01:00 +19°C° 0 mm 1 mps 741 mmHg 97%
    02:00 +19°C° 0 mm 1 mps 741 mmHg 97%
    03:00 +19°C° 0 mm 1 mps 741 mmHg 97%
    04:00 +19°C° 0 mm 1 mps 742 mmHg 97%
    05:00 +19°C° 0 mm 1 mps 742 mmHg 97%
    06:00 +20°C° 0 mm 1 mps 742 mmHg 95%
    07:00 +21°C° 0 mm 1 mps 742 mmHg 92%
    08:00 +22°C° 0 mm 1 mps 742 mmHg 90%
    09:00 +23°C° 0.5 mm 1 mps 742 mmHg 87%
    10:00 +24°C° 0.5 mm 1 mps 742 mmHg 84%
    11:00 +25°C° 0.5 mm 1 mps 742 mmHg 82%
    12:00 +25°C° 1.1 mm 2 mps 742 mmHg 81%
    13:00 +26°C° 1.1 mm 2 mps 742 mmHg 81%
    14:00 +26°C° 1.1 mm 3 mps 742 mmHg 81%
    15:00 +25°C° 0.9 mm 3 mps 742 mmHg 83%
    16:00 +25°C° 0.9 mm 4 mps 742 mmHg 85%
    17:00 +23°C° 0.9 mm 4 mps 742 mmHg 87%
    18:00 +22°C° 0.1 mm 4 mps 743 mmHg 89%
    19:00 +21°C° 0.1 mm 4 mps 743 mmHg 90%
    20:00 +20°C° 0.1 mm 4 mps 743 mmHg 92%
    21:00 +19°C° 0 mm 3 mps 743 mmHg 93%
    22:00 +19°C° 0 mm 3 mps 743 mmHg 95%
    23:00 +18°C° 0 mm 3 mps 743 mmHg 96%
    Show more